Location: Newark
(33.6333°S, 78.8500°W)
Time: 16:57:37
(UTC+00:00)

Tiros 1 despin weight - Pass Details

Date: 26 September 2019
Orbit: 593 x 643 km, 48.2° (Epoch: 22 October)

Event Time Altitude Azimuth Distance (km) Brightness Sun altitude
Rises 08:21:15 0° 226° (SW) 2,934 - -32.6°
Reaches altitude 10° 08:23:50 10° 214° (SW) 2,032 - -32.1°
Exits shadow 08:27:55 29° 154° (SSE) 1,179 ? -31.4°
Maximum altitude 08:27:55 29° 154° (SSE) 1,179 ? -31.4°
Drops below altitude 10° 08:32:02 10° 93° (E) 2,040 ? -30.6°
Sets 08:34:38 0° 81° (E) 2,948 ? -30.1°
